Regional Weather Roundup
Issued by NWS

Home | Current Version | Previous Version | Graphics & Text | Print | Product List | Glossary On
Versions: 1 2 3 4 5 6 7 8 9 10 11 12 13 14 15 16 17 18 19 20 21 22 23 24 25 26 27 28 29 30 31 32 33 34 35 36 37 38 39 40 41 42 43 44 45 46 47 48 49 50
000
ASUS43 KIND 232159
RWRIN

WEATHER ROUNDUP FOR INDIANA
NATIONAL WEATHER SERVICE INDIANAPOLIS IN
600 PM EDT THU MAR 23 2017

NOTE: "FAIR" INDICATES FEW OR NO CLOUDS BELOW 12,000 FEET WITH NO
SIGNIFICANT WEATHER AND/OR OBSTRUCTIONS TO VISIBILITY.

* - STATION DOES NOT REPORT WEATHER SUCH AS PRECIPITATION OR FOG.

+ - STATION NOT QUALITY CONTROLLED BY THE NATIONAL WEATHER SERVICE.
    USE DATA WITH CAUTION...ESPECIALLY DEWPOINT AND RELATIVE
    HUMIDITY OBSERVATIONS.

INZ001>003-010>013-019-020-232300-
NORTHWEST INDIANA

CITY           SKY/WX    TMP DP  RH WIND       PRES   REMARKS
GARY /AIRPORT/ CLOUDY    50  21  32 SE10      30.18F
KNOX *+        CLOUDY    46   1  15 SE16      30.21F
MONTICELLO +   CLOUDY    51  22  31 S8G16     30.20F

$$

LMZ046-743>745-232300-
SOUTHERN LAKE MICHIGAN

STATION/POSITION TIME  TEMP    WIND        PRES    WAVE
                       AIR SEA DIR/SP/G            HT
                 (UTC) (F)     (DEG/KT/KT) (MB)    (FT)
BURNS HARBOR     2140   48     170/ 11/ 18 1022.7F
MICHIGAN CITY    2130   46     130/ 18/ 22   N/A

$$

INZ004-005-014>016-021>024-232300-
NORTH CENTRAL INDIANA

CITY           SKY/WX    TMP DP  RH WIND       PRES   REMARKS
ELKHART        SUNNY     46  19  34 SE13      30.23F
GOSHEN         PTSUNNY   46  20  35 S15G21    30.23F
SOUTH BEND     CLOUDY    46  22  38 SE15      30.22F

$$

INZ006>009-017-018-025>027-232300-
NORTHEAST INDIANA

CITY           SKY/WX    TMP DP  RH WIND       PRES   REMARKS
ANGOLA *+      MOSUNNY   46  25  42 SE13      30.25F
FORT WAYNE     PTSUNNY   48  23  37 S14       30.26F
KENDALLVILLE + MOSUNNY   47  22  37 SE13      30.25F

$$

INZ028-029-035-036-043>045-051>053-232300-
WEST CENTRAL INDIANA

CITY           SKY/WX    TMP DP  RH WIND       PRES   REMARKS
CRAWFORDSVL +  CLOUDY    52  24  34 S12       30.20F
GREENCASTLE +  CLOUDY    54  23  30 S10G16    30.22F
LAFAYETTE      CLOUDY    52  25  35 SE9       30.20F
TERRE HAUTE    CLOUDY    51  27  39 S12       30.21F

$$

INZ030>032-037>040-046>048-054>057-064-065-232300-
CENTRAL INDIANA

CITY           SKY/WX    TMP DP  RH WIND       PRES   REMARKS
CP ATTERBURY + CLOUDY    55  23  28 S9G18     30.23F
COLUMBUS       CLOUDY    55  27  33 S10       30.24F
INDIANAPOLIS   CLOUDY    55  24  30 SE9       30.22F
-EAGLE CREEK   CLOUDY    55  22  27 SE6       30.21F
KOKOMO +       CLOUDY    51  31  46 SE13      30.23F
SHELBYVILLE    CLOUDY    58  26  29 S12       30.23F

$$

INZ033-034-041-042-049-050-058-059-232300-
EAST CENTRAL INDIANA

CITY           SKY/WX    TMP DP  RH WIND       PRES   REMARKS
MUNCIE         PTSUNNY   53  24  32 SE12      30.24F
RICHMOND +     MOSUNNY   52  28  40 SE12      30.26F

$$

INZ060-061-067>069-081>083-085>088-232300-
SOUTHWEST INDIANA

CITY           SKY/WX    TMP DP  RH WIND       PRES   REMARKS
EVANSVILLE     MOSUNNY   52  39  61 SE10      30.22F
HUNTINGBURG *+ CLOUDY    54  35  48 SE9       30.24F

$$

INZ062-063-066-070>080-084-089>092-232300-
SOUTH CENTRAL AND SOUTHEAST INDIANA

CITY           SKY/WX    TMP DP  RH WIND       PRES   REMARKS
BLOOMINGTON    CLOUDY    55  25  31 S9        30.22F
SEYMOUR +      CLOUDY    59  30  33 S9        30.24F

$$





USA.gov is the U.S. government's official web portal to all federal, state and local government web resources and services.